Kelso, MO

4:39 AM CST on December 03, 2016 (GMT -0600)
Cape Girardeau Regional

Weather History for KCGI - May, 2014

Change the Weather History Date:

Saturday, May 3, 2014

  Actual Average Record
Temperature  
Mean Temperature 62 °F 63 °F  
Max Temperature 79 °F 74 °F 85 °F (1965)
Min Temperature 44 °F 52 °F 34 °F (1971)
Degree Days  
Heating Degree Days 3 4  
Month to date heating degree days 28 12  
Since 1 July heating degree days 4891 4330  
Cooling Degree Days 0 2  
Month to date cooling degree days 0 6  
Year to date cooling degree days 11 37  
Growing Degree Days 12 (Base 50)    
Moisture  
Dew Point 47 °F    
Average Humidity 60    
Maximum Humidity 86    
Minimum Humidity 33    
Precipitation  
Precipitation 0.00 in 0.20 in 1.93 in (1979)
Month to date precipitation 0.00 0.58  
Year to date precipitation 13.46 16.22  
Sea Level Pressure  
Sea Level Pressure 29.93 in    
Wind  
Wind Speed 5 mph (SSW)    
Max Wind Speed 15 mph    
Max Gust Speed 17 mph    
Visibility 10 miles    
Events      
T = Trace of Precipitation, MM = Missing Value Source: NWS Daily Summary

Daily Weather History Graph

Daily Weather History Graph

Search for Another Location

Airport or City:

Trip Planner

Search our weather history database for the weather conditions in past years. The results will help you decide how hot, cold, wet, or windy it might be!

Date:

Astronomy

May. 03, 2014 Rise Set
Actual Time 6:01 AM CDT 7:49 PM CDT
Civil Twilight 5:33 AM CDT 8:17 PM CDT
Nautical Twilight 4:59 AM CDT 8:51 PM CDT
Astronomical Twilight 4:22 AM CDT 9:28 PM CDT
Moon 9:32 AM CDT 11:54 PM CDT
Length of Visible Light 14h 44m
Length of Day
13h 48m
Waxing Crescent, 20% of the Moon is Illuminated
May 3
Waxing Crescent
May 6
First Quarter
May 14
Full
May 21
Last Quarter
May 28
New

Hourly Weather History & Observations

Time (CDT) Temp. Dew Point Humidity Pressure Visibility Wind Dir Wind Speed Gust Speed Precip Events Conditions
12:53 AM 48.0 °F 44.1 °F 86% 29.90 in 10.0 mi Calm Calm - N/A   Clear
1:53 AM 46.0 °F 42.1 °F 86% 29.90 in 10.0 mi Calm Calm - N/A   Partly Cloudy
2:53 AM 46.0 °F 43.0 °F 89% 29.89 in 10.0 mi Calm Calm - N/A   Clear
3:53 AM 46.9 °F 42.1 °F 83% 29.90 in 10.0 mi NNW 3.5 mph - N/A   Partly Cloudy
4:53 AM 48.0 °F 45.0 °F 89% 29.89 in 10.0 mi Calm Calm - N/A   Overcast
5:53 AM 48.9 °F 45.0 °F 86% 29.90 in 10.0 mi WNW 4.6 mph - N/A   Overcast
6:53 AM 50.0 °F 46.0 °F 86% 29.92 in 10.0 mi West 5.8 mph - N/A   Overcast
7:53 AM 54.0 °F 44.1 °F 69% 29.94 in 10.0 mi WSW 10.4 mph - N/A   Overcast
8:53 AM 55.9 °F 44.1 °F 64% 29.97 in 10.0 mi West 9.2 mph - N/A   Mostly Cloudy
9:53 AM 60.1 °F 46.0 °F 60% 29.97 in 10.0 mi SW 8.1 mph - N/A   Partly Cloudy
10:53 AM 64.9 °F 46.0 °F 50% 29.97 in 10.0 mi WSW 10.4 mph - N/A   Mostly Cloudy
11:53 AM 66.9 °F 44.1 °F 44% 29.96 in 10.0 mi WSW 8.1 mph - N/A   Mostly Cloudy
12:53 PM 70.0 °F 46.0 °F 42% 29.95 in 10.0 mi Calm Calm - N/A   Mostly Cloudy
1:53 PM 73.9 °F 45.0 °F 35% 29.94 in 10.0 mi Variable 3.5 mph - N/A   Clear
2:53 PM 75.9 °F 46.9 °F 36% 29.93 in 10.0 mi Variable 6.9 mph - N/A   Clear
3:53 PM 77.0 °F 46.9 °F 34% 29.91 in 10.0 mi ENE 5.8 mph - N/A   Clear
4:53 PM 77.0 °F 50.0 °F 39% 29.91 in 10.0 mi South 10.4 mph - N/A   Clear
5:53 PM 75.9 °F 51.1 °F 42% 29.91 in 10.0 mi South 6.9 mph - N/A   Clear
6:53 PM 73.9 °F 50.0 °F 43% 29.91 in 10.0 mi South 5.8 mph - N/A   Clear
7:53 PM 66.9 °F 54.0 °F 63% 29.92 in 10.0 mi ESE 4.6 mph - N/A   Clear
8:53 PM 64.0 °F 53.1 °F 67% 29.93 in 10.0 mi SE 4.6 mph - N/A   Clear
9:53 PM 64.0 °F 50.0 °F 60% 29.94 in 10.0 mi East 3.5 mph - N/A   Clear
10:53 PM 60.1 °F 52.0 °F 75% 29.94 in 10.0 mi SSE 4.6 mph - N/A   Clear
11:53 PM 55.9 °F 52.0 °F 87% 29.94 in 10.0 mi SSE 3.5 mph - N/A   Clear